User: anonymous
Location: Heilwood
(40.6210°N, 78.9150°W)
Time: 20:13:07
(UTC-04:00)
Language:

BREEZE-M DEB (TANK) - Orbit

View from above orbital plane
View from above orbital plane
View from above satellite
View from above satellite

Ground track
Ground track

The orbit data is extracted from the following two-line orbital elements,

1 29649U 06056B   14106.66710449  .00005042  00000-0  83784-3 0  8809
2 29649 049.5350 355.4658 5426501 163.0664 343.7276 04.93118828130205
Epoch (UTC): 16 April 2014 16:00:37
Eccentricity: 0.5426501
inclination: 49.5350°
perigee height: 290 km
apogee height: 16114 km
right ascension of ascending node: 355.4658°
argument of perigee: 163.0664°
revolutions per day: 4.93118828
mean anomaly at epoch: 343.7276°
orbit number at epoch: 13020

The dashed part of the orbit path shows where the satellite is in the earth's shadow,  

DLR